Location: Santa Fe
(35.6870°N, 105.9370°W)
Time: 15:43:32
(UTC-07:00)

Amateur Radio Satellites - All Passes

Search period start: 04 March 2015 15:13
Search period end: 05 March 2015 15:13
Location: Santa Fe, 35.6870°N, 105.9370°W

Satellite Date Start Highest point End Downlink Frequencies (MHz)
Time Altitude Azimuth
YUBILEINY 04 Mar 15:16:40 15:24:46 47° 90° (E) 15:33:04 435.215
Gurwin Techsat 1B 04 Mar 15:21:24 15:24:10 14° 270° (W) 15:26:37 435.225
BEESAT 3 04 Mar 15:25:02 15:27:18 15° 110° (ESE) 15:29:45 437.485
VERMONT LUNAR 04 Mar 15:36:41 15:39:47 31° 149° (SSE) 15:42:56 437.305
MOZHAYETS 4 04 Mar 15:41:47 15:43:52 13° 90° (E) 15:46:15
JAS-2 04 Mar 15:49:56 15:55:23 87° 78° (ENE) 16:01:31 435.910
KKS-1 04 Mar 15:51:24 15:54:41 20° 291° (WNW) 15:57:50 437.445
BEESAT 2 04 Mar 15:51:41 15:55:05 26° 113° (ESE) 15:58:36 435.950
STARS 04 Mar 15:52:27 15:56:16 29° 289° (WNW) 16:00:00 437.465
ISS 04 Mar 15:53:39 15:56:29 28° 228° (SW) 15:59:18 145.825
PHONESAT 2.4 04 Mar 15:55:48 15:58:35 21° 146° (SE) 16:01:26 2401.200-2431.200
M-CUBED/EXP-1 PRIME 04 Mar 15:57:44 16:01:21 25° 101° (E) 16:05:14 437.505
AUBIESAT-1 04 Mar 15:58:04 16:01:30 22° 100° (E) 16:05:11 437.475
AIST 2 04 Mar 16:02:48 16:04:21 12° 109° (ESE) 16:06:08 435.215
Cubesat XI-IV 04 Mar 16:03:24 16:03:40 10° 62° (ENE) 16:04:19 437.490
CUTE-I 04 Mar 16:10:02 16:11:56 12° 63° (ENE) 16:14:09 437.470
BEESAT 3 04 Mar 17:01:13 17:05:05 40° 304° (NW) 17:09:00 437.485
AO-7 04 Mar 17:07:31 17:13:18 19° 269° (W) 17:18:35 29.400- 29.500
YUBILEINY 04 Mar 17:14:02 17:21:50 34° 288° (WNW) 17:29:31 435.215
VERMONT LUNAR 04 Mar 17:14:08 17:17:35 59° 343° (NNW) 17:21:03 437.305
MOZHAYETS 4 04 Mar 17:16:57 17:21:28 50° 286° (WNW) 17:25:57
BEESAT 2 04 Mar 17:29:48 17:33:14 24° 308° (NW) 17:36:39 435.950
AUBIESAT-1 04 Mar 17:32:26 17:36:21 32° 292° (WNW) 17:40:25 437.475
M-CUBED/EXP-1 PRIME 04 Mar 17:32:26 17:36:13 29° 292° (WNW) 17:40:09 437.505
PHONESAT 2.4 04 Mar 17:33:09 17:36:48 80° 339° (NNW) 17:40:27 2401.200-2431.200
AIST 1 04 Mar 17:33:14 17:37:15 34° 78° (ENE) 17:41:15
PRISM 04 Mar 17:35:59 17:38:20 15° 92° (E) 17:40:52 437.425
Cubesat XI-IV 04 Mar 17:37:43 17:43:05 88° 78° (ENE) 17:48:31 437.490
AIST 2 04 Mar 17:38:24 17:42:33 53° 302° (WNW) 17:46:45 435.215
CUBESAT XI-V 04 Mar 17:45:39 17:49:12 22° 93° (E) 17:52:52 437.345
O/OREOS (USA 219) 04 Mar 17:45:59 17:48:45 16° 57° (ENE) 17:51:41 437.305
CUTE-I 04 Mar 17:46:03 17:51:25 79° 257° (WSW) 17:56:50 437.470
HO-68 04 Mar 18:09:00 18:10:44 11° 56° (NE) 18:12:58 435.675
STRAND 1 04 Mar 18:43:19 18:48:21 52° 100° (E) 18:53:21 437.568
VERMONT LUNAR 04 Mar 18:52:35 18:55:49 35° 360° (N) 18:59:05 437.305
GOMX 1 04 Mar 19:01:56 19:05:33 19° 69° (ENE) 19:09:14 467.674
BRITE-PL 04 Mar 19:07:07 19:12:04 33° 72° (ENE) 19:16:55 437.365/2234.400
PRISM 04 Mar 19:10:06 19:14:02 37° 287° (WNW) 19:17:55 437.425
AIST 1 04 Mar 19:11:50 19:14:39 16° 272° (W) 19:17:16
PHONESAT 2.4 04 Mar 19:12:06 19:15:31 37° 356° (N) 19:18:57 2401.200-2431.200
CUBESAT XI-V 04 Mar 19:22:32 19:26:44 32° 288° (WNW) 19:30:50 437.345
O/OREOS (USA 219) 04 Mar 19:24:06 19:28:29 45° 254° (WSW) 19:32:48 437.305
DOVE 4 04 Mar 19:25:52 19:29:40 22° 71° (ENE) 19:33:30 437.250
SEEDS 04 Mar 19:27:51 19:30:56 21° 71° (ENE) 19:34:07 437.485
PCSat 04 Mar 19:30:26 19:35:35 48° 112° (ESE) 19:40:48 145.827
CANX-2 04 Mar 19:34:01 19:37:45 32° 73° (ENE) 19:41:33 2200.000
HO-68 04 Mar 19:50:19 19:57:23 70° 72° (ENE) 20:04:30 435.675
CUTE 1.7 + AOD 2 04 Mar 19:51:55 19:55:58 48° 75° (ENE) 20:00:03 437.475
UWE-3 04 Mar 20:17:56 20:20:40 17° 70° (ENE) 20:23:29 435.000/436.395/437.385
STRAND 1 04 Mar 20:23:52 20:27:10 17° 294° (WNW) 20:30:15 437.568
AAUSAT CUBESAT 2 04 Mar 20:27:01 20:31:08 77° 78° (ENE) 20:35:18 437.432
VERMONT LUNAR 04 Mar 20:30:35 20:34:03 60° 16° (NNE) 20:37:30 437.305
COMPASS 1 04 Mar 20:31:27 20:35:36 80° 258° (WSW) 20:39:46 437.405
Oscar 11 04 Mar 20:36:29 20:40:33 44° 74° (ENE) 20:44:40 145.826/435.025
GOMX 1 04 Mar 20:38:12 20:43:25 47° 261° (W) 20:48:22 467.674
RS-15 04 Mar 20:43:01 20:47:57 15° 102° (ESE) 20:53:52 29.354- 29.394
BRITE-PL 04 Mar 20:45:39 20:50:33 29° 265° (W) 20:55:13 437.365/2234.400
PHONESAT 2.4 04 Mar 20:50:49 20:54:22 49° 13° (NNE) 20:57:54 2401.200-2431.200
CINEMA 3 04 Mar 20:53:08 20:57:56 84° 258° (WSW) 21:02:33 145.822/145.860
CUBEBUG 2 04 Mar 20:58:31 21:02:57 60° 76° (ENE) 21:07:16 437.445
DOVE 4 04 Mar 21:02:30 21:07:16 37° 263° (W) 21:11:49 437.250
SEEDS 04 Mar 21:03:04 21:06:38 26° 264° (W) 21:10:09 437.485
DX 1 04 Mar 21:04:41 21:08:51 45° 73° (ENE) 21:13:03 434.975-435.025
CANX-2 04 Mar 21:10:59 21:13:50 17° 268° (W) 21:16:30 2200.000
HUMSAT D 04 Mar 21:13:26 21:16:59 28° 72° (ENE) 21:20:34 437.325/437.525
PCSat 04 Mar 21:15:03 21:19:17 22° 309° (NW) 21:23:26 145.827
AISAT 04 Mar 21:19:18 21:22:59 26° 71° (ENE) 21:26:46 437.250
DELFI C3 04 Mar 21:20:56 21:24:56 65° 259° (W) 21:28:57 145.870
GONETS M04 04 Mar 21:25:18 21:33:52 69° 93° (E) 21:42:29
FUNcube-1 04 Mar 21:25:49 21:30:11 82° 79° (E) 21:34:29 145.935
VELOX 1 04 Mar 21:27:25 21:31:20 31° 71° (ENE) 21:35:19 145.980
ZACube-1 04 Mar 21:27:56 21:32:20 88° 78° (ENE) 21:36:38 437.345
CUTE 1.7 + AOD 2 04 Mar 21:30:49 21:32:15 11° 270° (W) 21:33:25 437.475
UKube-1 04 Mar 21:31:00 21:35:22 88° 68° (ENE) 21:39:44 .
HO-68 04 Mar 21:40:52 21:45:47 19° 269° (W) 21:50:20 435.675
ESTCUBE 1 04 Mar 21:52:05 21:55:51 27° 71° (ENE) 21:59:44 437.505/2401.250
UWE-3 04 Mar 21:52:50 21:56:59 37° 262° (W) 22:01:01 435.000/436.395/437.385
QB50P1 04 Mar 21:56:46 21:57:50 11° 90° (E) 21:59:10 145.935-145.965
QB50P2 04 Mar 22:00:45 22:02:37 13° 91° (E) 22:04:41 145.880/145.840
UNISAT 6 04 Mar 22:03:34 22:07:16 28° 96° (E) 22:11:03 437.425
CUSAT 1 04 Mar 22:07:28 22:08:39 11° 94° (E) 22:10:13 437.405
VERMONT LUNAR 04 Mar 22:08:45 22:11:50 29° 212° (SSW) 22:14:53 437.305
DUCHIFAT 1 04 Mar 22:12:55 22:15:43 18° 93° (E) 22:18:37 145.980
Oscar 11 04 Mar 22:14:55 22:17:02 13° 269° (W) 22:18:55 145.826/435.025
50 SAT 04 Mar 22:20:14 22:24:11 61° 260° (W) 22:28:06 437.505
TIGRISAT 04 Mar 22:27:05 22:31:16 51° 99° (E) 22:35:32 435.000
PHONESAT 2.4 04 Mar 22:29:20 22:32:50 45° 209° (SSW) 22:36:17 2401.200-2431.200
POPSAT HIP 1 04 Mar 22:34:29 22:38:16 32° 97° (E) 22:42:05 437.405
POLYITAN 1 04 Mar 22:35:10 22:39:00 34° 97° (E) 22:42:51 437.675
CUBEBUG 2 04 Mar 22:39:26 22:40:03 10° 270° (W) 22:40:21 437.445
ANTELSAT 04 Mar 22:41:56 22:46:16 81° 101° (E) 22:50:40 437.575/2403.000
DX 1 04 Mar 22:43:04 22:45:23 14° 269° (W) 22:47:29 434.975-435.025
RS-15 04 Mar 22:48:02 22:58:56 82° 117° (ESE) 23:09:57 29.354- 29.394
HUMSAT D 04 Mar 22:49:41 22:52:48 19° 266° (W) 22:55:47 437.325/437.525
CUBEBUG 1 04 Mar 22:49:58 22:54:24 72° 259° (WSW) 22:58:51 437.445
AISAT 04 Mar 22:55:49 22:59:34 25° 265° (W) 23:03:14 437.250
NANOSAT C BR1 04 Mar 22:56:24 23:00:35 62° 101° (E) 23:04:44 145.865
VELOX 1 04 Mar 23:04:33 23:07:58 21° 266° (W) 23:11:17 145.980
TISAT 1 04 Mar 23:08:14 23:12:09 37° 73° (ENE) 23:16:07 437.305
SPROUT 04 Mar 23:12:49 23:16:58 46° 74° (ENE) 23:21:08 437.525
GONETS M04 04 Mar 23:24:59 23:31:36 22° 293° (WNW) 23:37:50
BUGSAT 1 04 Mar 23:27:32 23:31:40 74° 283° (WNW) 23:35:43 437.445
ESTCUBE 1 04 Mar 23:29:01 23:32:43 24° 265° (W) 23:36:20 437.505/2401.250
DANDE 04 Mar 23:29:21 23:36:12 63° 98° (E) 23:41:22 436.750
QB50P1 04 Mar 23:30:00 23:34:05 49° 286° (WNW) 23:38:09 145.935-145.965
QB50P2 04 Mar 23:34:48 23:38:49 42° 286° (WNW) 23:42:47 145.880/145.840
UNISAT 6 04 Mar 23:40:36 23:43:57 22° 289° (WNW) 23:47:13 437.425
CUSAT 1 04 Mar 23:45:12 23:51:36 75° 278° (W) 23:56:22 437.405
SO-50 04 Mar 23:45:53 23:48:54 18° 110° (ESE) 23:52:09 436.795
DUCHIFAT 1 04 Mar 23:47:54 23:51:40 31° 288° (WNW) 23:55:20 145.980
SWISSCUBE 04 Mar 23:54:20 23:57:48 21° 68° (ENE) 00:01:26 437.505
BEESAT 05 Mar 00:02:15 00:05:56 23° 69° (ENE) 00:09:45 436.000
JUGNU 05 Mar 00:03:37 00:04:23 10° 166° (SSE) 00:05:17 437.505
TIGRISAT 05 Mar 00:05:52 00:07:41 12° 293° (WNW) 00:09:17 435.000
POPSAT HIP 1 05 Mar 00:11:04 00:13:58 18° 291° (WNW) 00:16:41 437.405
POLYITAN 1 05 Mar 00:11:55 00:14:43 17° 291° (WNW) 00:17:21 437.675
Oscar 19 05 Mar 00:28:48 00:31:53 17° 91° (E) 00:35:13 437.125/150
ITUPSAT 1 05 Mar 00:30:17 00:34:48 45° 73° (ENE) 00:39:23 437.325
TISAT 1 05 Mar 00:45:28 00:48:08 16° 268° (W) 00:50:39 437.305
SPROUT 05 Mar 00:51:21 00:53:22 13° 269° (W) 00:55:09 437.525
RS-15 05 Mar 01:03:31 01:12:44 29° 322° (NW) 01:21:51 29.354- 29.394
KKS-1 05 Mar 01:10:16 01:13:36 22° 70° (ENE) 01:17:03 437.445
STARS 05 Mar 01:11:59 01:14:11 14° 67° (ENE) 01:16:37 437.465
DANDE 05 Mar 01:15:47 01:19:34 15° 286° (WNW) 01:22:33 436.750
BEESAT 3 05 Mar 01:22:57 01:26:56 47° 57° (ENE) 01:30:52 437.485
SO-50 05 Mar 01:24:47 01:29:09 42° 305° (NW) 01:33:39 436.795
SWISSCUBE 05 Mar 01:31:05 01:35:29 35° 263° (W) 01:39:51 437.505
YUBILEINY 05 Mar 01:31:35 01:37:14 19° 65° (ENE) 01:43:23 435.215
BEESAT 05 Mar 01:39:24 01:43:39 31° 263° (W) 01:47:53 436.000
JUGNU 05 Mar 01:49:10 01:52:39 16° 175° (S) 01:56:11 437.505
BEESAT 2 05 Mar 01:51:15 01:55:25 85° 60° (ENE) 01:59:30 435.950
SRMSAT 05 Mar 01:57:05 01:59:11 12° 168° (SSE) 02:01:23 437.500
Gurwin Techsat 1B 05 Mar 01:58:02 02:02:42 31° 96° (E) 02:07:25 435.225
AIST 2 05 Mar 02:03:03 02:07:04 40° 56° (NE) 02:11:03 435.215
Oscar 19 05 Mar 02:06:38 02:11:35 49° 287° (WNW) 02:16:30 437.125/150
ITUPSAT 1 05 Mar 02:09:57 02:12:59 16° 268° (W) 02:15:48 437.325
ITAMSAT 1 05 Mar 02:10:31 02:15:39 56° 100° (E) 02:20:45 435.822/435.867
M-CUBED/EXP-1 PRIME 05 Mar 02:45:59 02:47:53 15° 64° (ENE) 02:49:56 437.505
STARS 05 Mar 02:46:03 02:50:20 47° 261° (W) 02:54:36 437.465
AUBIESAT-1 05 Mar 02:46:04 02:47:37 13° 64° (ENE) 02:49:19 437.475
KKS-1 05 Mar 02:46:08 02:50:06 30° 263° (W) 02:54:02 437.445
JAS-2 05 Mar 03:02:41 03:07:22 18° 88° (E) 03:12:36 435.910
BEESAT 3 05 Mar 03:02:47 03:04:39 12° 251° (WSW) 03:06:17 437.485
HORYU 2 05 Mar 03:07:31 03:11:39 38° 98° (E) 03:15:50 437.375
AO-7 05 Mar 03:16:57 03:23:55 31° 96° (E) 03:31:05 29.400- 29.500
RS-15 05 Mar 03:26:12 03:30:38 13° 356° (N) 03:35:01 29.354- 29.394
YUBILEINY 05 Mar 03:26:23 03:35:15 80° 266° (W) 03:44:03 435.215
JUGNU 05 Mar 03:37:30 03:40:57 16° 186° (S) 03:44:22 437.505
Gurwin Techsat 1B 05 Mar 03:38:04 03:42:36 28° 291° (WNW) 03:47:01 435.225
AIST 2 05 Mar 03:42:44 03:45:23 16° 250° (WSW) 03:47:49 435.215
SRMSAT 05 Mar 03:43:56 03:47:38 17° 177° (S) 03:51:21 437.500
ITAMSAT 1 05 Mar 03:51:31 03:54:44 16° 295° (WNW) 03:57:45 435.822/435.867
MOZHAYETS 4 05 Mar 04:15:44 04:20:17 77° 258° (WSW) 04:24:53
AUBIESAT-1 05 Mar 04:19:25 04:22:18 27° 259° (W) 04:25:15 437.475
M-CUBED/EXP-1 PRIME 05 Mar 04:19:58 04:22:42 23° 260° (W) 04:25:28 437.505
PCSat 05 Mar 04:21:46 04:25:55 22° 51° (NE) 04:30:08 145.827
HORYU 2 05 Mar 04:45:05 04:48:04 17° 292° (WNW) 04:50:54 437.375
JAS-2 05 Mar 04:45:30 04:53:09 82° 284° (WNW) 05:01:02 435.910
CUBESAT XI-V 05 Mar 04:47:10 04:49:56 16° 68° (ENE) 04:52:56 437.345
AO-7 05 Mar 05:09:04 05:17:03 53° 293° (WNW) 05:24:58 29.400- 29.500
YUBILEINY 05 Mar 05:27:17 05:30:54 12° 281° (W) 05:33:45 435.215
SRMSAT 05 Mar 05:32:45 05:36:06 15° 187° (S) 05:39:23 437.500
RS-15 05 Mar 05:41:02 05:49:14 23° 31° (NNE) 05:58:04 29.354- 29.394
STRAND 1 05 Mar 05:56:14 06:01:14 56° 74° (ENE) 06:06:18 437.568
PRISM 05 Mar 05:57:10 06:01:18 77° 257° (WSW) 06:05:30 437.425
Cubesat XI-IV 05 Mar 05:58:15 06:03:22 45° 99° (E) 06:08:29 437.490
AIST 1 05 Mar 06:00:10 06:03:36 24° 90° (E) 06:07:08
PCSat 05 Mar 06:04:24 06:09:37 48° 249° (WSW) 06:14:46 145.827
CUTE-I 05 Mar 06:06:19 06:11:34 53° 100° (E) 06:16:46 437.470
CUBESAT XI-V 05 Mar 06:22:34 06:27:04 45° 262° (W) 06:31:35 437.345
JAS-2 05 Mar 06:33:00 06:37:19 16° 299° (WNW) 06:41:18 435.910
ISS 05 Mar 06:54:07 06:56:58 30° 133° (SE) 06:59:52 145.825
HO-68 05 Mar 07:23:58 07:27:07 14° 88° (E) 07:30:50 435.675
AIST 1 05 Mar 07:37:39 07:41:13 23° 285° (WNW) 07:44:42
STRAND 1 05 Mar 07:37:57 07:40:52 15° 269° (W) 07:43:31 437.568
Cubesat XI-IV 05 Mar 07:39:13 07:43:11 21° 293° (WNW) 07:46:59 437.490
GONETS M04 05 Mar 07:39:47 07:47:00 29° 70° (ENE) 07:54:30
CUTE 1.7 + AOD 2 05 Mar 07:42:55 07:43:38 10° 89° (E) 07:44:38 437.475
CUTE-I 05 Mar 07:47:42 07:51:16 18° 294° (WNW) 07:54:36 437.470
RS-15 05 Mar 07:52:40 08:04:11 73° 58° (ENE) 08:16:13 29.354- 29.394
O/OREOS (USA 219) 05 Mar 07:54:30 07:58:22 29° 104° (ESE) 08:02:21 437.305
AAUSAT CUBESAT 2 05 Mar 08:14:33 08:16:56 15° 92° (E) 08:19:31 437.432
COMPASS 1 05 Mar 08:18:51 08:21:56 20° 93° (E) 08:25:09 437.405
SO-50 05 Mar 08:20:50 08:22:09 11° 41° (NE) 08:23:43 436.795
ISS 05 Mar 08:30:44 08:33:23 23° 328° (NNW) 08:36:01 145.825
GOMX 1 05 Mar 08:43:39 08:47:54 65° 100° (E) 08:52:01 467.674
SEEDS 05 Mar 08:49:41 08:53:53 60° 100° (E) 08:58:05 437.485
CINEMA 3 05 Mar 08:51:50 08:55:15 25° 95° (E) 08:58:46 145.822/145.860
BRITE-PL 05 Mar 08:53:40 08:58:02 59° 285° (WNW) 09:02:08 437.365/2234.400
CUBEBUG 2 05 Mar 08:54:11 08:56:20 14° 92° (E) 08:58:41 437.445
CANX-2 05 Mar 08:57:32 09:01:49 81° 282° (WNW) 09:06:05 2200.000
UNISAT 6 05 Mar 09:00:48 09:03:45 18° 70° (ENE) 09:06:48 437.425
DELFI C3 05 Mar 09:04:31 09:07:34 21° 94° (E) 09:10:43 145.870
DOVE 4 05 Mar 09:04:43 09:08:56 77° 101° (ESE) 09:13:03 437.250
DUCHIFAT 1 05 Mar 09:05:36 09:05:47 10° 66° (ENE) 09:06:14 145.980
HO-68 05 Mar 09:08:36 09:15:50 87° 286° (WNW) 09:23:03 435.675
CUTE 1.7 + AOD 2 05 Mar 09:15:47 09:19:57 53° 285° (WNW) 09:24:07 437.475
FUNcube-1 05 Mar 09:18:17 09:21:05 18° 93° (E) 09:24:03 145.935
ZACube-1 05 Mar 09:20:29 09:23:29 19° 94° (E) 09:26:36 437.345
UKube-1 05 Mar 09:22:44 09:25:40 18° 94° (E) 09:28:45 .
TIGRISAT 05 Mar 09:23:26 09:27:19 32° 72° (ENE) 09:31:10 435.000
POPSAT HIP 1 05 Mar 09:25:26 09:28:20 18° 70° (ENE) 09:31:22 437.405
POLYITAN 1 05 Mar 09:26:20 09:29:20 19° 70° (ENE) 09:32:26 437.675
O/OREOS (USA 219) 05 Mar 09:34:06 09:37:48 23° 299° (WNW) 09:41:27 437.305
GONETS M04 05 Mar 09:35:51 09:44:20 55° 269° (W) 09:52:45
ANTELSAT 05 Mar 09:38:17 09:42:31 49° 75° (ENE) 09:46:43 437.575/2403.000
UWE-3 05 Mar 09:45:27 09:49:29 49° 99° (E) 09:53:35 435.000/436.395/437.385
NANOSAT C BR1 05 Mar 09:46:28 09:50:14 32° 72° (ENE) 09:54:04 145.865
AAUSAT CUBESAT 2 05 Mar 09:48:54 09:52:46 36° 287° (WNW) 09:56:36 437.432
COMPASS 1 05 Mar 09:54:03 09:57:41 28° 288° (WNW) 10:01:14 437.405
SO-50 05 Mar 09:58:38 10:03:37 78° 61° (ENE) 10:08:31 436.795
50 SAT 05 Mar 10:02:21 10:05:15 20° 94° (E) 10:08:15 437.505
Oscar 11 05 Mar 10:02:34 10:06:50 58° 284° (WNW) 10:11:04 145.826/435.025
RS-15 05 Mar 10:06:26 10:15:54 28° 254° (WSW) 10:25:08 29.354- 29.394
BUGSAT 1 05 Mar 10:14:30 10:18:37 50° 75° (ENE) 10:22:47 437.445
DANDE 05 Mar 10:16:13 10:17:56 16° 76° (ENE) 10:19:46 436.750
QB50P1 05 Mar 10:19:32 10:23:49 82° 77° (ENE) 10:28:07 145.935-145.965
QB50P2 05 Mar 10:24:27 10:28:45 86° 258° (WSW) 10:33:03 145.880/145.840
CUSAT 1 05 Mar 10:27:45 10:30:14 40° 80° (E) 10:32:59 437.405
SEEDS 05 Mar 10:28:36 10:29:16 10° 293° (WNW) 10:29:40 437.485
CINEMA 3 05 Mar 10:29:14 10:32:24 21° 289° (WNW) 10:35:28 145.822/145.860
CUBEBUG 2 05 Mar 10:29:24 10:33:15 37° 286° (WNW) 10:37:06 437.445
DX 1 05 Mar 10:31:56 10:36:16 62° 285° (WNW) 10:40:32 434.975-435.025
HUMSAT D 05 Mar 10:35:31 10:39:39 82° 102° (ESE) 10:43:48 437.325/437.525
UNISAT 6 05 Mar 10:36:21 10:40:22 33° 263° (W) 10:44:17 437.425
DUCHIFAT 1 05 Mar 10:36:56 10:41:10 62° 259° (W) 10:45:25 145.980
DELFI C3 05 Mar 10:39:21 10:42:46 25° 288° (WNW) 10:46:07 145.870
CUBEBUG 1 05 Mar 10:42:32 10:46:11 26° 95° (E) 10:49:52 437.445
AISAT 05 Mar 10:48:48 10:53:15 79° 102° (ESE) 10:57:40 437.250
FUNcube-1 05 Mar 10:53:53 10:57:32 30° 287° (WNW) 11:01:09 145.935
ZACube-1 05 Mar 10:56:19 10:59:53 27° 288° (WNW) 11:03:25 437.345
VELOX 1 05 Mar 10:56:52 11:01:20 86° 286° (WNW) 11:05:45 145.980
UKube-1 05 Mar 10:58:02 11:01:56 32° 288° (WNW) 11:05:46 .
HO-68 05 Mar 10:58:45 11:02:42 15° 301° (WNW) 11:06:15 435.675
POPSAT HIP 1 05 Mar 11:00:09 11:04:02 32° 263° (W) 11:07:53 437.405
TIGRISAT 05 Mar 11:01:01 11:04:10 18° 267° (W) 11:07:08 435.000
POLYITAN 1 05 Mar 11:01:15 11:05:05 31° 263° (W) 11:08:53 437.675
ANTELSAT 05 Mar 11:17:53 11:19:40 12° 269° (W) 11:21:10 437.575/2403.000
NANOSAT C BR1 05 Mar 11:23:10 11:26:12 18° 267° (W) 11:29:06 145.865
ESTCUBE 1 05 Mar 11:23:41 11:28:16 89° 101° (E) 11:32:48 437.505/2401.250
UWE-3 05 Mar 11:24:09 11:25:42 12° 292° (WNW) 11:27:01 435.000/436.395/437.385
50 SAT 05 Mar 11:36:59 11:40:14 24° 288° (WNW) 11:43:26 437.505
SO-50 05 Mar 11:42:42 11:43:37 10° 252° (WSW) 11:44:11 436.795
Oscar 19 05 Mar 11:43:03 11:46:30 19° 67° (ENE) 11:50:07 437.125/150
BUGSAT 1 05 Mar 11:52:56 11:54:28 11° 270° (W) 11:55:45 437.445
CUBEBUG 1 05 Mar 12:18:56 12:22:28 24° 290° (WNW) 12:25:54 437.445
TISAT 1 05 Mar 12:31:16 12:35:30 78° 283° (WNW) 12:39:40 437.305
ITUPSAT 1 05 Mar 12:35:20 12:37:55 15° 91° (E) 12:40:45 437.325
SPROUT 05 Mar 12:38:22 12:42:35 56° 285° (WNW) 12:46:44 437.525
Gurwin Techsat 1B 05 Mar 13:16:14 13:21:04 38° 71° (ENE) 13:25:58 435.225
Oscar 19 05 Mar 13:20:38 13:25:33 45° 261° (W) 13:30:28 437.125/150
ISS 05 Mar 13:24:21 13:26:14 15° 27° (NNE) 13:28:11 145.825
ITAMSAT 1 05 Mar 13:25:30 13:30:38 64° 75° (ENE) 13:35:51 435.822/435.867
SWISSCUBE 05 Mar 13:33:55 13:38:45 74° 103° (ESE) 13:43:33 437.505
BEESAT 05 Mar 13:41:57 13:46:46 83° 101° (E) 13:51:34 436.000
HORYU 2 05 Mar 14:03:35 14:07:10 25° 70° (ENE) 14:10:50 437.375
ITUPSAT 1 05 Mar 14:11:30 14:16:10 49° 287° (WNW) 14:20:46 437.325
AO-7 05 Mar 14:12:57 14:20:05 34° 63° (ENE) 14:27:22 29.400- 29.500
YUBILEINY 05 Mar 14:29:23 14:35:41 24° 84° (E) 14:42:23 435.215
STARS 05 Mar 14:38:54 14:42:59 38° 98° (E) 14:47:04 437.465
KKS-1 05 Mar 14:39:38 14:44:03 64° 101° (E) 14:48:27 437.445
VERMONT LUNAR 05 Mar 14:51:23 14:54:09 22° 146° (SSE) 14:56:57 437.305
JAS-2 05 Mar 14:55:57 15:00:40 30° 67° (ENE) 15:05:57 435.910
Gurwin Techsat 1B 05 Mar 14:56:56 15:01:11 23° 266° (W) 15:05:17 435.225
ISS 05 Mar 14:59:44 15:02:56 67° 224° (SW) 15:06:07 145.825
ITAMSAT 1 05 Mar 15:08:10 15:10:41 13° 270° (W) 15:12:53 435.822/435.867
